Satellite-Ground Cal/Val Site Overpasses Predictions

Prediction of Satellite NPP Overpassing Cal/Val Site: Antarctic Dome C

Ground Cal/Val Site Location: Latitude: -75.10, Longitude: 123.35; Satellite-Ground Site NADIR distance within 100 km.

Table of predicted overpasses for the next 14.0 days since TLE Epoch: 9/2/2023
Interval Starting Time Ending Time Minimum Distance Time Minimum Distance (km)
1 09/02/2023 07:45:20 09/02/2023 07:45:39 09/02/2023 07:45:30 74.36
2 09/03/2023 07:26:26 09/03/2023 07:26:54 09/03/2023 07:26:40 33.52
3 09/05/2023 15:08:50 09/05/2023 15:08:59 09/05/2023 15:08:54 94.51
4 09/06/2023 14:49:50 09/06/2023 14:50:18 09/06/2023 14:50:04 16.77
5 09/08/2023 07:32:37 09/08/2023 07:33:07 09/08/2023 07:32:52 3.17
6 09/11/2023 14:56:02 09/11/2023 14:56:31 09/11/2023 14:56:17 19.63
7 09/12/2023 14:37:19 09/12/2023 14:37:33 09/12/2023 14:37:26 87.50
8 09/13/2023 07:38:51 09/13/2023 07:39:18 09/13/2023 07:39:05 39.03
